• Em Portugal
  • Lista de países
  • Para 7 dias
  • Temperatura da água
  • Mapas de satélite
  • Mapa do tempo
  • Widgets de tempo
  • user-avatar
    Iniciar Sessão

    Previsão horária em Njiva

    Hoje, 23 Maio, Quarta-feira

    Tempo Temperatura Precipitação Vento Pressão Humidade
    00:00 +20°C° 0 mm 3 m/s 670 mmHg 38%
    01:00 +19°C° 0 mm 3 m/s 670 mmHg 39%
    02:00 +18°C° 0 mm 2 m/s 669 mmHg 39%
    03:00 +18°C° 0 mm 2 m/s 669 mmHg 40%
    04:00 +17°C° 0 mm 2 m/s 669 mmHg 40%
    05:00 +17°C° 0 mm 2 m/s 669 mmHg 40%
    06:00 +17°C° 0 mm 2 m/s 670 mmHg 40%
    07:00 +17°C° 0 mm 2 m/s 670 mmHg 40%
    08:00 +21°C° 0 mm 3 m/s 671 mmHg 33%
    09:00 +25°C° 0 mm 4 m/s 671 mmHg 27%
    10:00 +28°C° 0 mm 5 m/s 672 mmHg 21%
    11:00 +29°C° 0 mm 4 m/s 672 mmHg 20%
    12:00 +30°C° 0 mm 4 m/s 671 mmHg 18%
    13:00 +32°C° 0 mm 4 m/s 671 mmHg 17%
    14:00 +32°C° 0 mm 4 m/s 671 mmHg 17%
    15:00 +30°C° 0 mm 4 m/s 670 mmHg 17%
    16:00 +30°C° 0 mm 3 m/s 670 mmHg 17%
    17:00 +28°C° 0 mm 3 m/s 670 mmHg 21%
    18:00 +25°C° 0 mm 2 m/s 669 mmHg 24%
    19:00 +23°C° 0 mm 2 m/s 669 mmHg 27%
    20:00 +22°C° 0 mm 1 m/s 669 mmHg 29%
    21:00 +21°C° 0 mm 1 m/s 669 mmHg 30%
    22:00 +21°C° 0 mm 1 m/s 670 mmHg 31%
    23:00 +21°C° 0 mm 1 m/s 670 mmHg 32%

    Amanhã, 24 Maio, Quinta-feira

    Tempo Temperatura Precipitação Vento Pressão Humidade
    00:00 +20°C° 0 mm 1 m/s 670 mmHg 34%
    01:00 +20°C° 0 mm 1 m/s 670 mmHg 35%
    02:00 +19°C° 0 mm 1 m/s 669 mmHg 36%
    03:00 +19°C° 0 mm 1 m/s 669 mmHg 38%
    04:00 +19°C° 0 mm 1 m/s 669 mmHg 39%
    05:00 +18°C° 0 mm 1 m/s 669 mmHg 41%
    06:00 +18°C° 0 mm 1 m/s 669 mmHg 43%
    07:00 +18°C° 0 mm 1 m/s 669 mmHg 45%
    08:00 +21°C° 0 mm 2 m/s 670 mmHg 39%
    09:00 +25°C° 0 mm 3 m/s 671 mmHg 32%
    10:00 +28°C° 0 mm 3 m/s 672 mmHg 25%
    11:00 +29°C° 0 mm 3 m/s 671 mmHg 24%
    12:00 +29°C° 0 mm 3 m/s 671 mmHg 23%
    13:00 +29°C° 0 mm 3 m/s 670 mmHg 22%
    14:00 +29°C° 0 mm 3 m/s 670 mmHg 23%
    15:00 +28°C° 0 mm 3 m/s 669 mmHg 24%
    16:00 +28°C° 0 mm 2 m/s 669 mmHg 24%
    17:00 +26°C° 0 mm 2 m/s 669 mmHg 27%
    18:00 +25°C° 0 mm 2 m/s 669 mmHg 30%
    19:00 +23°C° 0 mm 2 m/s 668 mmHg 33%
    20:00 +21°C° 0 mm 2 m/s 669 mmHg 35%
    21:00 +20°C° 0 mm 2 m/s 669 mmHg 37%
    22:00 +20°C° 0 mm 2 m/s 669 mmHg 39%
    23:00 +19°C° 0 mm 2 m/s 669 mmHg 44%

    Depois de amanhã, 25 Maio, Sexta-feira

    Tempo Temperatura Precipitação Vento Pressão Humidade
    00:00 +18°C° 0 mm 2 m/s 669 mmHg 48%
    01:00 +17°C° 0 mm 2 m/s 668 mmHg 52%
    02:00 +17°C° 0 mm 2 m/s 668 mmHg 54%
    03:00 +16°C° 0 mm 2 m/s 668 mmHg 57%
    04:00 +16°C° 0 mm 2 m/s 667 mmHg 59%
    05:00 +16°C° 0 mm 2 m/s 668 mmHg 59%
    06:00 +16°C° 0 mm 2 m/s 668 mmHg 60%
    07:00 +16°C° 0 mm 2 m/s 668 mmHg 60%
    08:00 +19°C° 0 mm 2 m/s 669 mmHg 50%
    09:00 +23°C° 0 mm 2 m/s 670 mmHg 41%
    10:00 +27°C° 0 mm 2 m/s 671 mmHg 32%
    11:00 +28°C° 0 mm 3 m/s 670 mmHg 27%
    12:00 +29°C° 0 mm 3 m/s 670 mmHg 23%
    13:00 +30°C° 0 mm 4 m/s 669 mmHg 19%
    14:00 +30°C° 0 mm 3 m/s 669 mmHg 19%
    15:00 +30°C° 0 mm 3 m/s 668 mmHg 19%
    16:00 +30°C° 0 mm 3 m/s 668 mmHg 19%
    17:00 +28°C° 0 mm 3 m/s 668 mmHg 24%
    18:00 +26°C° 0 mm 2 m/s 668 mmHg 28%
    19:00 +23°C° 0 mm 2 m/s 668 mmHg 32%
    20:00 +21°C° 0 mm 3 m/s 668 mmHg 36%
    21:00 +21°C° 0 mm 3 m/s 668 mmHg 40%
    22:00 +20°C° 0 mm 3 m/s 669 mmHg 43%
    23:00 +19°C° 0 mm 3 m/s 668 mmHg 45%

    26 Maio, Sábado

    Tempo Temperatura Precipitação Vento Pressão Humidade
    00:00 +19°C° 0 mm 3 m/s 668 mmHg 46%
    01:00 +18°C° 0 mm 3 m/s 668 mmHg 48%
    02:00 +18°C° 0 mm 2 m/s 668 mmHg 50%
    03:00 +17°C° 0 mm 2 m/s 668 mmHg 51%
    04:00 +16°C° 0 mm 2 m/s 667 mmHg 53%
    05:00 +16°C° 0 mm 2 m/s 668 mmHg 54%
    06:00 +16°C° 0 mm 2 m/s 668 mmHg 56%
    07:00 +16°C° 0 mm 2 m/s 668 mmHg 57%
    08:00 +19°C° 0 mm 3 m/s 669 mmHg 48%
    09:00 +24°C° 0 mm 3 m/s 670 mmHg 39%
    10:00 +27°C° 0 mm 4 m/s 671 mmHg 30%
    11:00 +29°C° 0 mm 4 m/s 671 mmHg 27%
    12:00 +30°C° 0 mm 4 m/s 670 mmHg 24%
    13:00 +32°C° 0 mm 4 m/s 669 mmHg 21%
    14:00 +30°C° 0 mm 4 m/s 669 mmHg 21%
    15:00 +30°C° 0 mm 3 m/s 669 mmHg 22%
    16:00 +30°C° 0 mm 3 m/s 668 mmHg 22%
    17:00 +28°C° 0 mm 3 m/s 668 mmHg 26%
    18:00 +26°C° 0 mm 2 m/s 668 mmHg 29%
    19:00 +24°C° 0 mm 2 m/s 668 mmHg 33%
    20:00 +23°C° 0 mm 2 m/s 669 mmHg 35%
    21:00 +21°C° 0 mm 2 m/s 669 mmHg 37%
    22:00 +21°C° 0 mm 2 m/s 669 mmHg 39%
    23:00 +20°C° 0 mm 2 m/s 669 mmHg 42%

    27 Maio, Domingo

    Tempo Temperatura Precipitação Vento Pressão Humidade
    00:00 +19°C° 0 mm 3 m/s 669 mmHg 44%
    01:00 +19°C° 0 mm 3 m/s 669 mmHg 47%
    02:00 +18°C° 0 mm 3 m/s 668 mmHg 50%
    03:00 +17°C° 0 mm 3 m/s 668 mmHg 53%
    04:00 +17°C° 0 mm 3 m/s 668 mmHg 56%
    05:00 +17°C° 0 mm 3 m/s 669 mmHg 57%
    06:00 +17°C° 0 mm 3 m/s 669 mmHg 58%
    07:00 +17°C° 0 mm 3 m/s 670 mmHg 60%
    08:00 +20°C° 0 mm 4 m/s 670 mmHg 51%
    09:00 +23°C° 0 mm 4 m/s 671 mmHg 42%
    10:00 +28°C° 0 mm 5 m/s 672 mmHg 34%
    11:00 +29°C° 0 mm 5 m/s 671 mmHg 30%
    12:00 +30°C° 0 mm 5 m/s 671 mmHg 27%
    13:00 +32°C° 0 mm 4 m/s 670 mmHg 24%
    14:00 +32°C° 0 mm 4 m/s 670 mmHg 24%
    15:00 +32°C° 0 mm 4 m/s 669 mmHg 24%
    16:00 +31°C° 0 mm 3 m/s 669 mmHg 24%
    17:00 +28°C° 0 mm 3 m/s 669 mmHg 29%
    18:00 +26°C° 0 mm 2 m/s 669 mmHg 34%
    19:00 +24°C° 0 mm 2 m/s 669 mmHg 38%
    20:00 +24°C° 0 mm 2 m/s 669 mmHg 40%
    21:00 +23°C° 0 mm 2 m/s 670 mmHg 42%
    22:00 +22°C° 0 mm 3 m/s 670 mmHg 44%
    23:00 +21°C° 0 mm 3 m/s 670 mmHg 47%

    28 Maio, Segunda-feira

    Tempo Temperatura Precipitação Vento Pressão Humidade
    00:00 +20°C° 0 mm 3 m/s 669 mmHg 50%
    01:00 +19°C° 0 mm 3 m/s 669 mmHg 52%
    02:00 +19°C° 0 mm 2 m/s 669 mmHg 54%
    03:00 +19°C° 0 mm 2 m/s 669 mmHg 55%
    04:00 +18°C° 0 mm 2 m/s 669 mmHg 57%
    05:00 +18°C° 0 mm 2 m/s 669 mmHg 57%
    06:00 +18°C° 0 mm 2 m/s 670 mmHg 57%
    07:00 +18°C° 0 mm 2 m/s 670 mmHg 57%
    08:00 +23°C° 0 mm 2 m/s 671 mmHg 48%
    09:00 +26°C° 0 mm 3 m/s 672 mmHg 38%
    10:00 +29°C° 0 mm 4 m/s 672 mmHg 28%
    11:00 +30°C° 0 mm 3 m/s 672 mmHg 26%
    12:00 +31°C° 0 mm 3 m/s 671 mmHg 24%
    13:00 +33°C° 0 mm 3 m/s 671 mmHg 21%
    14:00 +33°C° 0 mm 3 m/s 670 mmHg 21%
    15:00 +32°C° 0 mm 2 m/s 670 mmHg 21%
    16:00 +32°C° 0 mm 2 m/s 670 mmHg 21%
    17:00 +29°C° 0 mm 2 m/s 670 mmHg 26%
    18:00 +27°C° 0 mm 2 m/s 669 mmHg 30%
    19:00 +24°C° 0 mm 1 m/s 669 mmHg 35%
    20:00 +24°C° 0 mm 2 m/s 669 mmHg 38%
    21:00 +23°C° 0 mm 2 m/s 669 mmHg 41%
    22:00 +21°C° 0 mm 2 m/s 669 mmHg 44%
    23:00 +20°C° 0 mm 2 m/s 669 mmHg 47%
    Mostrar mais